TimeCDT,TemperatureF,Dew PointF,Humidity,Sea Level PressureIn,VisibilityMPH,Wind Direction,Wind SpeedMPH,Gust SpeedMPH,PrecipitationIn,Events,Conditions,WindDirDegrees,DateUTC
12:56 AM,64.9,44.1,47,29.99,10.0,SSW,11.5,18.4,N/A,,Clear,200,2013-10-09 05:56:00
1:56 AM,63.0,44.1,50,30.02,10.0,SSW,9.2,-,N/A,,Clear,200,2013-10-09 06:56:00
2:56 AM,62.1,45.0,53,30.03,10.0,SSW,9.2,-,N/A,,Clear,200,2013-10-09 07:56:00
3:56 AM,60.1,46.0,60,30.04,10.0,South,9.2,-,N/A,,Clear,190,2013-10-09 08:56:00
4:56 AM,57.0,46.0,67,30.05,10.0,South,5.8,-,N/A,,Clear,180,2013-10-09 09:56:00
5:56 AM,55.0,46.0,72,30.06,10.0,South,3.5,-,N/A,,Clear,170,2013-10-09 10:56:00
6:56 AM,54.0,46.0,75,30.07,10.0,SSE,6.9,-,N/A,,Clear,150,2013-10-09 11:56:00
7:56 AM,54.0,46.9,77,30.07,10.0,South,4.6,-,N/A,,Clear,170,2013-10-09 12:56:00
8:56 AM,57.9,48.0,70,30.09,10.0,South,8.1,-,N/A,,Clear,180,2013-10-09 13:56:00
9:56 AM,61.0,50.0,67,30.10,10.0,South,11.5,-,N/A,,Clear,170,2013-10-09 14:56:00
10:56 AM,64.0,51.1,63,30.12,10.0,SSW,6.9,-,N/A,,Clear,200,2013-10-09 15:56:00
11:56 AM,70.0,51.1,51,30.11,10.0,SW,15.0,23.0,N/A,,Clear,220,2013-10-09 16:56:00
12:56 PM,72.0,48.9,44,30.09,10.0,SSW,17.3,-,N/A,,Clear,200,2013-10-09 17:56:00
1:56 PM,73.0,48.9,42,30.07,10.0,South,12.7,19.6,N/A,,Clear,190,2013-10-09 18:56:00
2:56 PM,73.0,48.9,42,30.07,10.0,South,13.8,20.7,N/A,,Clear,190,2013-10-09 19:56:00
3:56 PM,73.0,48.9,42,30.07,10.0,South,13.8,-,N/A,,Clear,180,2013-10-09 20:56:00
4:56 PM,73.0,48.9,42,30.06,10.0,South,12.7,-,N/A,,Clear,170,2013-10-09 21:56:00
5:56 PM,70.0,50.0,49,30.07,10.0,SSE,8.1,-,N/A,,Clear,150,2013-10-09 22:56:00
6:56 PM,64.9,50.0,58,30.07,10.0,SSE,6.9,-,N/A,,Clear,160,2013-10-09 23:56:00
7:56 PM,62.1,48.0,60,30.07,10.0,SSE,6.9,-,N/A,,Clear,150,2013-10-10 00:56:00
8:56 PM,60.1,48.0,64,30.08,10.0,SSE,6.9,-,N/A,,Clear,160,2013-10-10 01:56:00
9:56 PM,55.9,46.0,69,30.09,10.0,Calm,Calm,-,N/A,,Clear,0,2013-10-10 02:56:00
10:56 PM,57.9,46.0,65,30.09,10.0,SSE,4.6,-,N/A,,Clear,150,2013-10-10 03:56:00
11:56 PM,48.9,45.0,86,30.09,10.0,Calm,Calm,-,N/A,,Clear,0,2013-10-10 04:56:00